DW7901 Weather Reports


time (UTC)temp
C
wind
direction
speed
KPH
gust
KPH
rain 1hr
cm
rain 24hr
cm
rain mn
cm
humidity
%
barometer
mb
20260508085004 14 42 6.4 12.9 0.03 0.43 0.15 80 1019.7
20260508084004 15 35 6.4 9.7 0.03 0.43 0.15 80 1019.4
20260508083004 15 18 6.4 11.3 0.03 0.43 0.15 84 1019.5
20260508081003 14 355 4.8 9.7 0.00 0.38 0.13 83 1019.3
20260508080004 14 37 4.8 8.0 0.00 0.38 0.13 83 1019.4
20260508074004 14 20 6.4 9.7 0.00 0.38 0.13 83 1019.3
20260508073006 14 14 6.4 9.7 0.00 0.38 0.13 85 1019.4
20260507210005 12 1 3.2 6.4 0.05 0.15 0.15 89 1017.1
20260507205005 12 340 3.2 8.0 0.05 0.15 0.15 88 1017.1
20260507204004 12 1 3.2 8.0 0.03 0.13 0.13 89 1017.0
20260507203005 12 357 3.2 12.9 0.03 0.13 0.13 89 1016.8
20260507202005 13 11 6.4 17.7 0.03 0.13 0.13 88 1016.7
20260507201005 13 1 6.4 12.9 0.00 0.10 0.10 87 1016.6
20260507195004 13 326 6.4 12.9 0.00 0.10 0.10 90 1016.6
20260507194005 14 325 6.4 14.5 0.00 0.10 0.10 91 1016.5
20260507193005 14 286 3.2 14.5 0.03 0.10 0.10 92 1016.2
20260507192004 14 26 8.0 17.7 0.03 0.10 0.10 92 1016.5
20260507191005 14 338 1.6 6.4 0.03 0.10 0.10 91 1016.1
20260507190006 14 321 0.0 6.4 0.03 0.10 0.10 91 1016.0
20260507185004 14 3 0.0 4.8 0.03 0.10 0.10 91 1015.8
20260507184004 14 1 3.2 4.8 0.03 0.10 0.10 90 1015.5
20260507183005 15 351 1.6 6.4 0.00 0.05 0.05 89 1015.2
20260507182004 15 1 3.2 3.2 0.00 0.05 0.05 87 1015.3
20260507181004 15 1 0.0 3.2 0.00 0.05 0.05 86 1015.3
20260507180005 15 0 0.0 0.0 0.03 0.05 0.05 86 1015.1
20260507174004 15 181 0.0 4.8 0.03 0.05 0.05 84 1015.2
20260507172005 15 287 1.6 3.2 0.03 0.05 0.05 83 1014.9
20260507171005 15 336 0.0 6.4 0.03 0.05 0.05 81 1014.8
20260507165004 16 266 3.2 14.5 0.00 0.03 0.03 76 1014.6
20260507164004 16 269 9.7 14.5 0.03 0.03 0.03 75 1014.6
20260507163005 17 265 11.3 27.4 0.03 0.03 0.03 73 1014.5
20260507162005 17 227 6.4 20.9 0.03 0.03 0.03 81 1014.4
20260507161005 17 255 4.8 9.7 0.03 0.03 0.03 79 1014.1
20260507160005 17 219 0.0 8.0 0.03 0.03 0.03 78 1014.0
20260507155004 18 217 6.4 12.9 0.03 0.03 0.03 78 1014.0
20260507153004 18 191 6.4 11.3 0.00 0.00 0.00 74 1014.1
20260507152004 19 163 4.8 12.9 0.00 0.00 0.00 73 1014.1
20260507151004 19 185 3.2 11.3 0.00 0.00 0.00 72 1014.0
20260507150006 19 181 6.4 12.9 0.00 0.00 0.00 69 1013.9
20260507143005 21 192 3.2 11.3 0.00 0.00 0.00 53 1013.9
20260507142004 21 215 6.4 12.9 0.00 0.00 0.00 51 1013.6
20260507141004 22 223 3.2 8.0 0.00 0.00 0.00 48 1013.6
20260507140005 22 203 4.8 17.7 0.00 0.00 0.00 44 1013.6
20260507135004 23 243 6.4 12.9 0.00 0.00 0.00 40 1013.3
20260507134005 23 230 3.2 16.1 0.00 0.00 0.00 40 1013.6
20260507133005 23 249 4.8 25.7 0.00 0.00 0.00 38 1013.3
20260507132004 24 289 4.8 14.5 0.00 0.00 0.00 36 1013.3
20260507131004 25 299 3.2 24.1 0.00 0.00 0.00 33 1013.2
20260507130005 26 195 6.4 19.3 0.00 0.00 0.00 31 1013.3
20260507125005 26 37 4.8 20.9 0.00 0.00 0.00 31 1013.4
20260507124005 26 281 6.4 24.1 0.00 0.00 0.00 31 1013.2
20260507123005 26 294 8.0 20.9 0.00 0.00 0.00 31 1013.2
20260507122004 26 270 4.8 11.3 0.00 0.00 0.00 30 1013.4
20260507121004 25 145 1.6 12.9 0.00 0.00 0.00 33 1013.5
20260507120006 24 248 6.4 20.9 0.00 0.00 0.00 35 1013.6
20260507115004 24 261 3.2 12.9 0.00 0.00 0.00 34 1013.6
20260507114004 25 253 4.8 19.3 0.00 0.00 0.00 33 1013.5
20260507113006 25 249 3.2 19.3 0.00 0.00 0.00 32 1013.7
20260507112004 26 245 6.4 20.9 0.00 0.00 0.00 30 1013.3
20260507111004 26 176 6.4 17.7 0.00 0.00 0.00 30 1013.4
20260507110005 25 210 9.7 19.3 0.00 0.00 0.00 32 1013.4
20260507105004 26 244 6.4 27.4 0.00 0.00 0.00 30 1013.5
20260507104004 26 291 9.7 22.5 0.00 0.00 0.00 30 1013.4
20260507103004 27 181 3.2 16.1 0.00 0.00 0.00 29 1013.3
20260507102006 27 201 4.8 17.7 0.00 0.00 0.00 28 1013.0
20260507100005 26 318 6.4 20.9 0.00 0.00 0.00 30 1012.7
20260507095004 26 227 12.9 24.1 0.00 0.00 0.00 30 1012.9
20260507094004 26 222 1.6 24.1 0.00 0.00 0.00 30 1012.7
20260507092004 26 223 6.4 20.9 0.00 0.00 0.00 30 1012.7
20260507091004 25 228 4.8 20.9 0.00 0.00 0.00 33 1012.7
20260507090005 25 296 8.0 24.1 0.00 0.00 0.00 33 1012.8